Weather History for St. Joseph, MO

Change the Weather History Date:

Sunday, May 26, 2013

  Actual Average Record
Temperature  
Mean Temperature 77 °F 68 °F  
Max Temperature 87 °F 79 °F 94 °F (1967)
Min Temperature 67 °F 57 °F 43 °F (1925)
Degree Days  
Heating Degree Days 0 2  
Month to date heating degree days 166 107  
Since 1 July heating degree days 5599 5445  
Cooling Degree Days 12 5  
Month to date cooling degree days 77 65  
Year to date cooling degree days 93 86  
Growing Degree Days 28 (Base 50)    
Moisture  
Dew Point 64 °F    
Average Humidity 66    
Maximum Humidity 84    
Minimum Humidity 48    
Precipitation  
Precipitation 0.00 in 0.16 in 1.36 in (2000)
Month to date precipitation 1.89 4.59  
Year to date precipitation 8.40 12.12  
Sea Level Pressure  
Sea Level Pressure 29.94 in    
Wind  
Wind Speed 13 mph (South)    
Max Wind Speed 22 mph    
Max Gust Speed 26 mph    
Visibility 10 miles    
Events      
T = Trace of Precipitation, MM = Missing Value Source: NWS Daily Summary

Daily Weather History Graph

Daily Weather History Graph

Search for Another Location

Airport:

Trip Planner

Search our weather history database for the weather conditions in past years. The results will help you decide how hot, cold, wet, or windy it might be!

Date:

Astronomy

May. 26, 2013 Rise Set
Actual Time 5:56 AM CDT 8:37 PM CDT
Civil Twilight 5:24 AM CDT 9:09 PM CDT
Nautical Twilight 4:45 AM CDT 9:48 PM CDT
Astronomical Twilight 4:01 AM CDT 10:33 PM CDT
Moon 10:25 PM CDT (5/26) 7:26 AM CDT (5/26)
Length of Visible Light 15h 44m
Length of Day
14h 40m
Waning Gibbous, 96% of the Moon is Illuminated
May 26
Waning Gibbous
May 31
Last Quarter
Jun 8
New
Jun 16
First Quarter
Jun 23
Full

Hourly Weather History & Observations

Time (CDT) Temp. Heat Index Dew Point Humidity Pressure Visibility Wind Dir Wind Speed Gust Speed Precip Events Conditions
12:53 AM 71.1 °F - 62.1 °F 73% 30.02 in 10.0 mi SE 8.1 mph - N/A   Overcast
1:53 AM 70.0 °F - 62.1 °F 76% 30.00 in 10.0 mi SE 8.1 mph - N/A   Overcast
2:53 AM 71.1 °F - 63.0 °F 75% 30.00 in 10.0 mi SSE 5.8 mph - N/A   Overcast
3:53 AM 70.0 °F - 63.0 °F 78% 29.99 in 10.0 mi SSE 8.1 mph - N/A   Overcast
4:53 AM 69.1 °F - 64.0 °F 84% 29.98 in 10.0 mi SSE 6.9 mph - N/A   Mostly Cloudy
5:53 AM 69.1 °F - 64.0 °F 84% 29.98 in 10.0 mi SSE 8.1 mph - N/A   Overcast
6:53 AM 70.0 °F - 63.0 °F 78% 29.98 in 10.0 mi SSE 11.5 mph - N/A   Scattered Clouds
7:37 AM 71.6 °F - 64.4 °F 78% 30.00 in 10.0 mi South 11.5 mph - N/A   Mostly Cloudy
7:53 AM 72.0 °F - 64.0 °F 76% 29.97 in 10.0 mi South 15.0 mph - N/A   Overcast
8:53 AM 73.9 °F - 64.9 °F 73% 29.98 in 10.0 mi South 16.1 mph 26.5 mph N/A   Overcast
9:53 AM 75.9 °F - 64.9 °F 69% 29.98 in 10.0 mi South 15.0 mph - N/A   Overcast
10:53 AM 79.0 °F - 64.9 °F 62% 29.96 in 10.0 mi South 17.3 mph - N/A   Overcast
11:53 AM 79.0 °F - 64.0 °F 60% 29.97 in 10.0 mi SSW 17.3 mph 25.3 mph N/A   Overcast
12:53 PM 82.9 °F 84.4 °F 64.0 °F 53% 29.96 in 10.0 mi South 17.3 mph - N/A   Mostly Cloudy
1:53 PM 82.9 °F 84.4 °F 64.0 °F 53% 29.94 in 10.0 mi South 17.3 mph - N/A   Overcast
2:53 PM 84.0 °F 85.8 °F 64.9 °F 53% 29.92 in 10.0 mi South 13.8 mph - N/A   Mostly Cloudy
3:53 PM 84.9 °F 86.6 °F 64.9 °F 51% 29.90 in 10.0 mi South 19.6 mph 24.2 mph N/A   Overcast
4:53 PM 86.0 °F 87.6 °F 64.9 °F 49% 29.89 in 10.0 mi SSW 13.8 mph - N/A   Scattered Clouds
5:53 PM 84.0 °F 86.3 °F 66.0 °F 55% 29.87 in 10.0 mi South 13.8 mph - N/A   Partly Cloudy
6:53 PM 84.0 °F 86.3 °F 66.0 °F 55% 29.86 in 10.0 mi South 15.0 mph - N/A   Mostly Cloudy
7:53 PM 82.0 °F 83.8 °F 64.9 °F 56% 29.84 in 10.0 mi South 17.3 mph - N/A   Clear
8:53 PM 79.0 °F - 66.0 °F 64% 29.88 in 10.0 mi SSE 6.9 mph - N/A   Mostly Cloudy
9:53 PM 78.1 °F - 66.0 °F 66% 29.91 in 10.0 mi SSE 10.4 mph - N/A   Mostly Cloudy
10:53 PM 78.1 °F - 66.0 °F 66% 29.90 in 10.0 mi South 12.7 mph 21.9 mph 0.00 in   Scattered Clouds
11:53 PM 77.0 °F - 64.9 °F 66% 29.89 in 10.0 mi SSE 15.0 mph - N/A   Clear